Погода в Черенчицах

Россия / Новгородская область     57°45′12″N   31°38′13″E
В апреле 2022 года жителям России запретили посещать сайт meteo.paraplan.net по решению Генеральной прокуратуры. Аудитория сайта уменьшилась в 10 раз. Владельцы сайта не видят смысла в поддержке погодного сервера в таких условиях. Сайт будет закрыт в октябре.
темп.,
°C
ветер,
м/с
пор.,
м/с
влажн.,
%
обл.,
%
осадки,
мм/ч
давл.,
гПа
погр.,
м
3 октября, пн
пн300:00+6ссв31187100 0.0 1006578
03:00+6ссв51384100 0.0 1003739
06:00+7ссв61592100 2.7 1000905
09:00+7ссв81793100 10.5 9961017
12:00+7св61594100 13.1 994945
15:00+8ссв61495100 21.9 992819
18:00+10всв3997100 5.1 992423
21:00+8юв3985100 5.3 995618
4 октября, вт
вт400:00+7в4987100 0.1 996719
03:00+7в4888100 0.6 9971002
06:00+5вюв2694100 0.4 997575
09:00+6вюв3793100 0.8 998955
12:00+6юв3694100 0.2 10001001
15:00+6вюв2690100 0.5 1002732
18:00+6вюв2493100 0.3 1004766
21:00+6св1190100 0.4 100547
5 октября, ср
ср500:00+5ссз1395100 0.2 1006134
03:00+5зсз2496100 0.6 1008198
06:00+5з2496100 0.0 1009151
09:00+6з139496 0.1 1010170
12:00+8з238180 0.1 1011646
15:00+10зсз2371100 0.3 10121047
18:00+7юз2588100 0.0 1013156
21:00+6ююз2694100 0.0 1014166
6 октября, чт
чт600:00+7ююв3896100 1.1 1013291
03:00+8ююз3998100 1.7 1012404
06:00+10ююз3899100 0.1 1011339
09:00+10ююз3998100 0.2 1011347
12:00+12ююз4119050 0.0 1010638
15:00+16юз512753 0.0 10091171
18:00+14з6128465 0.6 10101060
21:00+11з512820 0.6 1012962
7 октября, пт
пт700:00+10зюз5128186 0.0 10141059
03:00+11зюз51273100 0.1 10141126
06:00+10юз61480100 0.1 10141211
09:00+11зюз6157498 0.3 10141645
12:00+14з6136312 0.1 10161670
15:00+14з512635 0.2 10161601
18:00+12зюз4117122 0.1 1017673
21:00+10юз4128058 0.1 1017459